Time,TemperatureF,DewpointF,PressureIn,WindDirection,WindDirectionDegrees,WindSpeedMPH,WindSpeedGustMPH,Humidity,HourlyPrecipIn,Conditions,Clouds,dailyrainin,SoftwareType,DateUTC
2014-04-23 00:09:00,65.6,55.1,29.29,East,90,2.0,3.0,68,0.00,,,0.00,,2014-04-23 05:09:00,
2014-04-23 00:18:00,65.4,55.2,29.29,East,90,1.0,2.5,69,0.00,,,0.00,,2014-04-23 05:18:00,
2014-04-23 00:23:00,65.3,55.1,29.29,East,90,2.0,2.0,69,0.00,,,0.00,,2014-04-23 05:23:00,
2014-04-23 00:28:00,65.3,55.1,29.29,East,90,1.5,2.0,69,0.00,,,0.00,,2014-04-23 05:28:00,
2014-04-23 00:34:00,65.4,54.9,29.29,East,90,1.0,1.5,68,0.00,,,0.00,,2014-04-23 05:34:00,
2014-04-23 00:43:00,65.2,54.7,29.29,East,90,1.5,2.5,68,0.00,,,0.00,,2014-04-23 05:43:00,
2014-04-23 00:48:00,65.1,54.5,29.29,East,90,2.0,2.5,68,0.00,,,0.00,,2014-04-23 05:48:00,
2014-04-23 00:53:00,65.0,54.5,29.29,East,90,2.5,2.5,68,0.00,,,0.00,,2014-04-23 05:53:00,
2014-04-23 00:58:00,64.8,54.7,29.28,ENE,67,3.0,3.5,69,0.00,,,0.00,,2014-04-23 05:58:00,
2014-04-23 01:03:00,64.9,54.8,29.29,ENE,67,2.0,3.5,69,0.00,,,0.00,,2014-04-23 06:03:00,
2014-04-23 01:13:00,64.4,54.6,29.28,ENE,67,2.0,3.0,70,0.00,,,0.00,,2014-04-23 06:13:00,
2014-04-23 01:18:00,64.2,54.8,29.28,ENE,67,2.5,3.0,71,0.00,,,0.00,,2014-04-23 06:18:00,
2014-04-23 01:23:00,64.2,54.8,29.28,ENE,67,1.5,3.0,71,0.00,,,0.00,,2014-04-23 06:23:00,
2014-04-23 01:28:00,63.9,54.8,29.28,ENE,67,2.0,3.5,72,0.00,,,0.00,,2014-04-23 06:28:00,
2014-04-23 01:33:00,63.9,54.8,29.28,ENE,67,2.0,2.5,72,0.00,,,0.00,,2014-04-23 06:33:00,
2014-04-23 01:38:00,63.9,54.8,29.28,ENE,67,2.0,2.5,72,0.00,,,0.00,,2014-04-23 06:38:00,
2014-04-23 01:43:00,63.9,55.0,29.28,ENE,67,2.5,3.0,72,0.00,,,0.00,,2014-04-23 06:43:00,
2014-04-23 01:48:00,63.7,55.0,29.28,ENE,67,2.0,3.5,73,0.00,,,0.00,,2014-04-23 06:48:00,
2014-04-23 01:53:00,63.8,55.0,29.28,ENE,67,2.0,2.5,73,0.00,,,0.00,,2014-04-23 06:53:00,
2014-04-23 01:58:00,63.8,55.1,29.28,ENE,67,1.0,2.5,73,0.00,,,0.00,,2014-04-23 06:58:00,
2014-04-23 02:03:00,63.6,55.2,29.28,East,90,2.0,3.0,74,0.00,,,0.00,,2014-04-23 07:03:00,
2014-04-23 02:13:00,63.4,55.4,29.27,East,90,1.5,2.0,75,0.00,,,0.00,,2014-04-23 07:13:00,
2014-04-23 02:18:00,63.3,55.4,29.27,East,90,0.5,2.0,75,0.00,,,0.00,,2014-04-23 07:18:00,
2014-04-23 02:23:00,63.4,55.6,29.27,ESE,112,0.5,3.0,75,0.00,,,0.00,,2014-04-23 07:23:00,
2014-04-23 02:28:00,63.5,55.7,29.27,ESE,112,0.5,2.5,75,0.00,,,0.00,,2014-04-23 07:28:00,
2014-04-23 02:33:00,63.4,55.7,29.27,ESE,112,0.0,2.5,76,0.00,,,0.00,,2014-04-23 07:33:00,
2014-04-23 02:38:00,63.4,55.7,29.27,ESE,112,2.0,3.0,76,0.00,,,0.00,,2014-04-23 07:38:00,
2014-04-23 02:43:00,63.3,55.7,29.27,ESE,112,1.0,3.0,76,0.00,,,0.00,,2014-04-23 07:43:00,
2014-04-23 02:48:00,63.2,55.7,29.27,ESE,112,2.0,3.0,76,0.00,,,0.00,,2014-04-23 07:48:00,
2014-04-23 02:53:00,62.9,55.5,29.27,ESE,112,1.0,3.5,76,0.00,,,0.00,,2014-04-23 07:53:00,
2014-04-23 02:58:00,62.7,55.4,29.27,ESE,112,2.0,2.5,77,0.00,,,0.00,,2014-04-23 07:58:00,
2014-04-23 03:03:00,62.5,55.4,29.26,ESE,112,0.5,2.5,77,0.00,,,0.00,,2014-04-23 08:03:00,
2014-04-23 03:09:00,62.5,55.3,29.27,ESE,112,1.0,3.5,77,0.00,,,0.00,,2014-04-23 08:09:00,
2014-04-23 03:18:00,62.2,55.0,29.26,ESE,112,1.0,3.0,77,0.00,,,0.00,,2014-04-23 08:18:00,
2014-04-23 03:23:00,62.2,54.7,29.26,ESE,112,1.5,2.5,76,0.00,,,0.00,,2014-04-23 08:23:00,
2014-04-23 03:28:00,62.2,54.3,29.26,ESE,112,2.0,2.5,75,0.00,,,0.00,,2014-04-23 08:28:00,
2014-04-23 03:33:00,62.4,54.1,29.26,ESE,112,0.5,4.0,74,0.00,,,0.00,,2014-04-23 08:33:00,
2014-04-23 03:38:00,62.3,54.1,29.26,ESE,112,2.0,2.5,74,0.00,,,0.00,,2014-04-23 08:38:00,
2014-04-23 03:43:00,62.3,54.0,29.27,ESE,112,2.0,3.0,74,0.00,,,0.00,,2014-04-23 08:43:00,
2014-04-23 03:48:00,62.3,54.0,29.27,ESE,112,0.0,3.5,74,0.00,,,0.00,,2014-04-23 08:48:00,
2014-04-23 03:53:00,62.2,53.9,29.26,ESE,112,2.5,3.5,74,0.00,,,0.00,,2014-04-23 08:53:00,
2014-04-23 03:58:00,62.2,53.9,29.26,ESE,112,2.0,3.0,74,0.00,,,0.00,,2014-04-23 08:58:00,
2014-04-23 04:03:00,62.0,54.0,29.26,ESE,112,0.5,2.0,75,0.00,,,0.00,,2014-04-23 09:03:00,
2014-04-23 04:08:00,61.7,53.9,29.26,ESE,112,0.5,2.5,75,0.00,,,0.00,,2014-04-23 09:08:00,
2014-04-23 04:13:00,61.7,53.9,29.26,ESE,112,0.5,2.5,75,0.00,,,0.00,,2014-04-23 09:13:00,
2014-04-23 04:18:00,61.5,54.0,29.26,ESE,112,1.5,3.0,76,0.00,,,0.00,,2014-04-23 09:18:00,
2014-04-23 04:24:00,61.4,53.9,29.26,ESE,112,1.5,3.0,76,0.00,,,0.00,,2014-04-23 09:24:00,
2014-04-23 04:33:00,61.2,53.8,29.26,ESE,112,1.0,2.5,76,0.00,,,0.00,,2014-04-23 09:33:00,
2014-04-23 04:38:00,61.2,53.7,29.26,ESE,112,1.5,3.0,76,0.00,,,0.00,,2014-04-23 09:38:00,
2014-04-23 04:43:00,61.2,53.6,29.26,ESE,112,1.0,3.0,76,0.00,,,0.00,,2014-04-23 09:43:00,
2014-04-23 04:48:00,61.2,53.6,29.26,ESE,112,1.0,3.0,76,0.00,,,0.00,,2014-04-23 09:48:00,
2014-04-23 04:53:00,61.1,53.5,29.26,ESE,112,2.5,3.0,76,0.00,,,0.00,,2014-04-23 09:53:00,
2014-04-23 04:58:00,61.0,53.5,29.25,ESE,112,1.5,3.0,76,0.00,,,0.00,,2014-04-23 09:58:00,
2014-04-23 05:03:00,61.1,53.5,29.25,ESE,112,2.5,4.0,76,0.00,,,0.00,,2014-04-23 10:03:00,
2014-04-23 05:08:00,61.4,53.5,29.26,East,90,1.5,4.5,75,0.00,,,0.00,,2014-04-23 10:08:00,
2014-04-23 05:13:00,61.4,53.5,29.25,ESE,112,3.0,5.5,75,0.00,,,0.00,,2014-04-23 10:13:00,
2014-04-23 05:18:00,61.6,53.4,29.25,SE,135,3.0,5.5,74,0.00,,,0.00,,2014-04-23 10:18:00,
2014-04-23 05:23:00,61.8,53.3,29.25,SE,135,3.5,5.5,73,0.00,,,0.00,,2014-04-23 10:23:00,
2014-04-23 05:28:00,62.0,53.4,29.25,SE,135,5.0,6.0,73,0.00,,,0.00,,2014-04-23 10:28:00,
2014-04-23 05:33:00,61.9,53.2,29.25,SE,135,4.5,6.0,73,0.00,,,0.00,,2014-04-23 10:33:00,
2014-04-23 05:38:00,62.0,53.3,29.25,SSE,157,3.5,5.5,73,0.00,,,0.00,,2014-04-23 10:38:00,
2014-04-23 05:43:00,62.1,53.2,29.26,ESE,112,3.5,7.0,72,0.00,,,0.00,,2014-04-23 10:43:00,
2014-04-23 05:48:00,62.2,53.2,29.26,ESE,112,5.0,6.5,72,0.00,,,0.00,,2014-04-23 10:48:00,
2014-04-23 05:53:00,61.9,53.3,29.26,ESE,112,3.5,6.5,73,0.00,,,0.00,,2014-04-23 10:53:00,
2014-04-23 05:58:00,61.9,53.3,29.26,ESE,112,3.5,5.0,73,0.00,,,0.00,,2014-04-23 10:58:00,
2014-04-23 06:03:00,61.8,53.3,29.26,ESE,112,4.0,5.5,73,0.00,,,0.00,,2014-04-23 11:03:00,
2014-04-23 06:08:00,61.6,53.3,29.26,SSE,157,4.0,5.0,74,0.00,,,0.00,,2014-04-23 11:08:00,
2014-04-23 06:14:00,61.2,53.6,29.26,SE,135,3.5,6.0,76,0.00,,,0.00,,2014-04-23 11:14:00,
2014-04-23 06:23:00,61.3,54.1,29.27,South,180,3.5,9.0,77,0.00,,,0.00,,2014-04-23 11:23:00,
2014-04-23 06:28:00,61.1,54.0,29.27,SSE,157,4.0,6.5,77,0.00,,,0.00,,2014-04-23 11:28:00,
2014-04-23 06:38:00,60.9,54.1,29.27,SSE,157,2.5,5.5,78,0.00,,,0.00,,2014-04-23 11:38:00,
2014-04-23 06:43:00,61.0,54.2,29.27,ESE,112,3.5,7.0,78,0.00,,,0.00,,2014-04-23 11:43:00,
2014-04-23 06:53:00,60.7,54.3,29.26,East,90,2.0,5.5,79,0.00,,,0.00,,2014-04-23 11:53:00,
2014-04-23 06:58:00,60.5,54.4,29.27,SE,135,2.5,6.5,80,0.00,,,0.00,,2014-04-23 11:58:00,
2014-04-23 07:03:00,60.5,54.5,29.27,ESE,112,1.5,5.5,80,0.00,,,0.00,,2014-04-23 12:03:00,
2014-04-23 07:08:00,60.2,54.5,29.27,ESE,112,0.5,4.5,81,0.00,,,0.00,,2014-04-23 12:08:00,
2014-04-23 07:13:00,60.4,54.6,29.27,ESE,112,1.0,4.5,80,0.00,,,0.00,,2014-04-23 12:13:00,
2014-04-23 07:18:00,60.6,54.6,29.28,ESE,112,1.5,4.5,80,0.00,,,0.00,,2014-04-23 12:18:00,
2014-04-23 07:24:00,60.5,54.7,29.28,ESE,112,3.5,3.5,81,0.00,,,0.00,,2014-04-23 12:24:00,
2014-04-23 07:33:00,60.6,55.0,29.28,ESE,112,1.5,4.0,81,0.00,,,0.00,,2014-04-23 12:33:00,
2014-04-23 07:38:00,60.9,55.3,29.28,ESE,112,1.5,4.5,81,0.00,,,0.00,,2014-04-23 12:38:00,
2014-04-23 07:43:00,61.2,55.6,29.28,ESE,112,3.0,4.5,81,0.00,,,0.00,,2014-04-23 12:43:00,
2014-04-23 07:48:00,61.7,56.1,29.28,ESE,112,2.5,4.5,81,0.00,,,0.00,,2014-04-23 12:48:00,
2014-04-23 07:54:00,62.2,56.6,29.28,SE,135,3.5,5.5,81,0.00,,,0.00,,2014-04-23 12:54:00,
2014-04-23 08:04:00,63.2,57.2,29.28,ESE,112,2.0,5.5,80,0.00,,,0.00,,2014-04-23 13:04:00,
2014-04-23 08:08:00,63.5,57.5,29.28,ESE,112,3.5,7.0,80,0.00,,,0.00,,2014-04-23 13:08:00,
2014-04-23 08:13:00,64.0,58.0,29.28,East,90,4.0,6.0,80,0.00,,,0.00,,2014-04-23 13:13:00,
2014-04-23 08:18:00,64.4,58.3,29.28,SE,135,2.0,4.5,80,0.00,,,0.00,,2014-04-23 13:18:00,
2014-04-23 08:23:00,65.0,58.9,29.28,ESE,112,4.5,6.5,80,0.00,,,0.00,,2014-04-23 13:23:00,
2014-04-23 08:33:00,66.4,59.9,29.28,SE,135,4.5,12.5,79,0.00,,,0.00,,2014-04-23 13:33:00,
2014-04-23 08:38:00,67.0,60.2,29.28,East,90,3.5,9.5,78,0.00,,,0.00,,2014-04-23 13:38:00,
2014-04-23 08:43:00,67.2,60.5,29.28,East,90,4.0,7.5,79,0.00,,,0.00,,2014-04-23 13:43:00,
2014-04-23 08:53:00,67.9,61.1,29.28,South,180,7.0,8.5,78,0.00,,,0.00,,2014-04-23 13:53:00,
2014-04-23 08:58:00,68.2,61.4,29.28,ESE,112,5.0,11.5,78,0.00,,,0.00,,2014-04-23 13:58:00,
2014-04-23 09:03:00,68.7,61.5,29.28,SE,135,8.0,9.0,77,0.00,,,0.00,,2014-04-23 14:03:00,
2014-04-23 09:08:00,68.9,61.7,29.28,SE,135,6.5,10.5,77,0.00,,,0.00,,2014-04-23 14:08:00,
2014-04-23 09:13:00,69.5,62.0,29.28,SSE,157,3.0,10.5,77,0.00,,,0.00,,2014-04-23 14:13:00,
2014-04-23 09:18:00,69.9,62.1,29.28,East,90,3.5,10.0,76,0.00,,,0.00,,2014-04-23 14:18:00,
2014-04-23 09:23:00,70.6,62.3,29.28,SE,135,8.0,11.0,75,0.00,,,0.00,,2014-04-23 14:23:00,
2014-04-23 09:28:00,71.2,62.3,29.28,ESE,112,10.5,10.5,73,0.00,,,0.00,,2014-04-23 14:28:00,
2014-04-23 09:33:00,71.7,62.6,29.27,East,90,11.0,11.5,73,0.00,,,0.00,,2014-04-23 14:33:00,
2014-04-23 09:38:00,72.2,62.5,29.28,SE,135,9.5,11.0,71,0.00,,,0.00,,2014-04-23 14:38:00,
2014-04-23 09:43:00,72.7,62.9,29.28,ESE,112,7.5,11.5,71,0.00,,,0.00,,2014-04-23 14:43:00,
2014-04-23 09:53:00,73.8,63.4,29.28,ESE,112,5.5,8.5,69,0.00,,,0.00,,2014-04-23 14:53:00,
2014-04-23 09:58:00,74.2,63.5,29.27,SE,135,6.5,12.0,69,0.00,,,0.00,,2014-04-23 14:58:00,
2014-04-23 10:03:00,74.9,63.3,29.27,East,90,10.5,11.0,67,0.00,,,0.00,,2014-04-23 15:03:00,
2014-04-23 10:13:00,75.6,63.0,29.28,East,90,3.5,12.0,64,0.00,,,0.00,,2014-04-23 15:13:00,
2014-04-23 10:18:00,76.1,62.9,29.28,SE,135,10.0,13.0,63,0.00,,,0.00,,2014-04-23 15:18:00,
2014-04-23 10:24:00,76.4,63.0,29.28,SE,135,6.0,13.5,63,0.00,,,0.00,,2014-04-23 15:24:00,
2014-04-23 10:33:00,76.7,62.3,29.28,South,180,8.5,13.5,61,0.00,,,0.00,,2014-04-23 15:33:00,
2014-04-23 10:38:00,77.2,62.9,29.28,SSE,157,8.0,14.5,61,0.00,,,0.00,,2014-04-23 15:38:00,
2014-04-23 10:43:00,77.3,62.8,29.27,ESE,112,4.5,14.5,61,0.00,,,0.00,,2014-04-23 15:43:00,
2014-04-23 10:48:00,77.4,63.0,29.28,ESE,112,5.0,14.0,61,0.00,,,0.00,,2014-04-23 15:48:00,
2014-04-23 10:53:00,77.8,62.4,29.28,SE,135,7.5,16.5,59,0.00,,,0.00,,2014-04-23 15:53:00,
2014-04-23 10:58:00,78.0,62.7,29.28,SSW,202,12.0,14.5,59,0.00,,,0.00,,2014-04-23 15:58:00,
2014-04-23 11:03:00,78.6,62.6,29.27,SE,135,9.0,15.5,58,0.00,,,0.00,,2014-04-23 16:03:00,